Wind_Speed
18 13 7 9 16 19 27 26 28 31 33 31 30 29 31 32 30 27 21 14 10 8 8 20 24 21 19 18 19 14 13 13 10 11 1 16 20 23 27 26 30 30 32 31 29 28 24 29 32
18 14 15 15 14 24 24 26 33 34 34 35 32 33 34 35 35 32 29 23 14 9 9 12 16 25 26 22 19 15 11 10 5 13 19 21 26 30 27 26 29 29 28 27 25 26 26 24 27
15 16 12 15 16 22 22 25 27 33 37 36 33 32 33 35 36 33 33 29 21 11 4 7 13 15 15 13 11 7 6 12 18 19 21 28 31 28 27 26 27 25 24 20 24 22 23 26 27
11 9 13 11 17 21 19 23 27 28 31 33 36 36 36 37 41 37 37 34 27 19 10 3 6 11 14 14 12 13 17 21 22 26 29 31 33 28 27 26 26 22 18 22 22 23 23 25 36
16 9 8 8 16 19 20 22 30 32 33 33 34 36 39 41 44 45 44 43 35 28 20 15 15 13 18 19 19 22 26 26 28 30 31 34 31 29 27 25 22 20 18 19 15 19 17 16 21
22 17 10 9 17 20 23 24 28 30 34 36 37 39 45 46 48 50 52 51 46 41 36 28 24 22 22 22 26 29 31 30 32 33 34 35 31 27 22 23 21 18 18 16 12 14 16 16 19
11 11 11 8 19 19 22 28 32 30 31 35 36 37 43 49 51 51 52 54 55 52 49 42 35 32 30 31 34 34 35 36 36 35 34 33 30 26 20 19 17 15 14 14 13 14 17 15 24
9 9 9 16 21 18 23 27 33 33 35 34 35 33 41 47 52 50 50 50 54 56 55 52 46 38 36 37 38 39 40 39 37 35 34 30 27 23 20 16 13 13 16 15 12 13 16 18 19
11 11 10 16 19 19 24 25 30 28 35 38 34 31 34 43 39 43 45 50 51 53 55 54 53 49 44 44 42 41 38 34 30 29 28 26 24 19 16 14 12 19 16 11 13 16 14 14 16
10 11 9 12 15 16 18 18 23 25 24 29 32 30 27 30 38 40 42 46 46 50 50 50 50 48 46 42 40 37 34 33 30 26 23 23 22 19 12 13 12 13 14 15 13 14 16 15 17
9 7 8 10 10 12 14 14 16 21 22 25 25 28 29 29 25 36 39 42 44 43 46 45 45 46 42 40 35 33 29 27 23 19 17 14 18 22 17 11 13 8 7 10 6 5 13 18 20
6 7 8 7 7 6 7 8 9 16 18 21 22 24 25 25 23 24 30 38 39 41 40 40 42 39 35 31 26 25 25 23 18 17 17 7 7 4 9 9 8 5 3 7 1 15 16 15 16
3 7 4 5 4 2 2 4 9 12 15 19 20 21 22 24 27 20 24 27 31 31 32 32 32 31 30 26 21 19 19 19 13 10 9 12 7 11 6 7 4 1 1 6 7 12 13 19 12
1 7 10 8 7 5 3 5 8 8 9 13 15 16 18 20 22 20 21 24 20 23 24 27 26 27 27 26 20 16 12 9 5 5 7 5 8 7 3 10 11 5 6 8 9 8 8 14 16
5 6 11 11 10 10 9 6 12 13 8 8 9 12 13 14 16 17 14 15 19 17 17 17 20 20 21 18 17 17 13 11 11 12 8 6 5 0 2 6 7 6 7 7 8 8 8 11 16
3 8 10 13 12 13 14 13 12 11 5 15 10 13 11 11 10 11 11 9 10 17 17 11 10 12 12 12 12 12 10 8 7 6 5 6 5 2 2 5 7 8 6 7 7 9 11 14 10
11 7 11 15 15 17 17 19 16 15 20 19 19 19 15 10 13 12 11 7 8 7 12 12 9 10 12 15 15 11 10 9 8 7 6 5 3 4 7 9 11 15 14 10 7 9 8 10 7
14 11 16 17 16 17 19 18 19 18 20 24 24 24 20 23 16 16 16 11 7 7 13 13 12 8 10 13 15 16 17 14 10 9 10 7 6 8 4 5 8 13 15 14 10 14 13 9 8
27 21 22 22 18 19 20 21 16 21 21 25 21 22 27 26 21 19 20 15 14 11 10 15 22 18 14 15 18 19 20 21 19 16 15 11 11 9 9 14 11 10 13 12 11 17 21 19 14
24 29 25 26 23 21 21 23 25 23 16 23 24 19 17 24 20 19 22 21 19 15 15 13 16 19 20 20 18 20 24 28 25 23 22 19 15 14 12 11 13 17 22 25 20 19 19 25 25
26 27 26 24 24 16 12 24 24 24 27 34 30 24 34 31 20 16 23 22 22 23 20 15 20 23 22 22 25 23 26 31 29 27 25 25 25 25 24 23 27 29 29 25 29 33 30 26 26
21 28 28 31 25 25 33 32 27 33 24 25 29 33 26 19 15 26 25 28 27 28 25 26 26 27 24 26 28 28 30 35 36 33 32 28 29 29 30 31 30 34 40 38 36 38 40 36 30
26 29 38 32 35 35 35 37 34 33 33 36 31 26 26 29 30 32 37 41 30 31 34 34 32 34 31 33 35 36 34 35 36 39 34 33 28 33 35 35 39 38 30 33 42 42 42 40 38
33 33 44 44 41 42 44 46 44 46 41 33 28 26 29 33 36 40 41 54 56 42 36 32 36 34 39 41 42 48 45 43 37 40 41 41 39 43 45 47 45 38 37 36 42 45 45 46 43
50 56 59 59 57 54 52 54 53 57 56 51 46 45 44 45 51 30 33 40 44 50 44 38 38 45 48 52 52 55 55 48 43 41 46 51 51 50 52 56 55 51 52 55 53 56 56 52 52
57 53 60 64 66 67 67 59 62 60 59 56 49 42 42 40 43 33 38 41 51 47 42 43 49 50 50 50 53 56 55 47 48 54 54 54 54 57 59 62 65 67 65 64 63 64 62 65 64
68 72 74 75 75 73 73 71 61 63 59 59 54 51 53 52 50 39 35 40 47 55 56 58 52 52 52 51 52 46 50 47 52 55 63 65 63 65 66 68 68 72 72 73 72 71 70 71 71
62 68 70 74 74 76 79 79 75 71 67 64 66 64 66 61 56 67 62 63 73 65 52 56 52 46 52 52 56 67 53 56 66 71 67 64 69 76 77 74 76 76 73 72 74 74 73 75 76
53 55 57 60 65 68 73 76 77 80 79 76 68 68 71 70 73 73 76 77 73 65 53 60 57 66 70 72 67 60 62 69 80 81 78 76 79 77 76 82 85 83 83 85 83 83 83 82 79
57 59 61 60 63 70 72 74 75 75 75 74 68 59 65 66 69 72 76 78 74 76 77 80 89 86 82 69 66 67 77 81 81 80 77 78 77 78 82 81 82 83 92 97 98 96 97 92 92
Wind_Direction
90 82 101 52 46 41 30 33 41 43 43 41 47 45 41 43 40 35 24 5 331 289 249 236 239 230 225 229 238 242 235 249 268 285 137 128 121 115 112 103 104 102 104 88 82 82 72 70 72
80 96 82 65 53 49 44 47 54 50 48 49 52 51 45 44 40 34 30 23 8 335 285 244 226 231 234 237 238 233 241 247 227 134 128 129 121 119 111 107 112 108 104 92 75 71 65 68 68
100 152 71 68 50 52 51 44 47 48 50 51 55 51 48 46 42 37 35 30 27 15 325 252 231 216 209 204 212 209 155 142 128 130 128 125 121 114 107 102 110 112 103 82 77 69 64 67 65
130 131 87 71 57 56 58 51 54 50 47 49 54 53 53 49 47 45 42 40 36 34 35 71 187 198 187 177 160 144 138 128 126 125 125 123 121 112 103 104 105 106 94 87 73 66 64 60 56
88 102 91 74 61 60 52 55 53 53 51 48 52 54 58 55 52 48 47 45 48 51 62 87 120 144 159 164 145 139 132 124 125 123 121 124 120 112 105 105 100 96 90 86 58 53 47 53 51
114 122 108 60 72 63 62 56 53 56 54 51 55 64 69 65 59 54 52 52 55 61 68 82 101 117 134 140 136 132 128 127 126 126 128 129 125 117 106 99 97 93 87 78 62 50 40 58 65
150 129 96 91 69 63 61 56 50 51 50 53 59 72 66 68 60 54 55 55 58 65 71 75 84 97 114 126 130 131 130 126 127 127 129 130 129 127 117 101 95 93 90 78 54 46 46 25 51
135 121 126 98 73 60 66 63 52 51 60 62 68 72 71 68 56 53 56 58 59 66 72 79 84 89 101 117 122 123 120 125 124 125 127 131 134 132 139 131 108 85 71 73 63 46 32 31 36
164 146 133 106 89 74 78 65 55 57 62 64 71 71 69 66 47 43 56 60 62 63 70 77 83 89 97 104 110 114 116 119 121 124 127 129 131 136 127 106 109 70 59 66 49 38 40 30 11
161 146 132 113 93 84 86 71 57 56 63 62 65 67 62 58 58 39 56 60 62 68 70 76 84 89 94 97 101 104 114 122 122 123 124 128 121 104 103 122 77 62 15 66 58 29 14 5 355
203 157 142 130 109 97 92 75 63 57 58 53 67 61 61 59 54 49 55 59 58 65 72 76 81 91 92 96 102 110 119 121 129 133 135 121 85 71 68 80 49 44 22 44 70 36 353 342 336
156 162 155 150 137 105 97 84 67 66 68 63 58 54 47 35 41 43 48 54 55 65 64 69 80 83 85 94 109 113 122 127 128 111 97 111 115 107 89 102 37 70 345 286 45 356 10 2 353
165 185 204 179 179 168 87 43 39 49 59 60 49 37 33 40 38 52 50 51 55 51 56 58 61 65 78 80 88 104 119 112 125 121 129 105 102 127 125 120 136 231 257 158 312 341 6 26 6
175 207 218 212 212 242 272 336 341 7 29 46 39 31 24 26 37 41 50 46 50 52 49 46 54 52 53 63 80 66 72 96 112 116 203 159 138 144 208 274 263 292 322 278 326 324 13 38 41
291 241 219 218 226 251 273 291 310 316 339 11 27 14 7 18 20 29 35 39 40 40 43 52 49 52 52 52 56 54 53 43 43 39 27 14 18 81 232 298 303 302 325 351 344 323 347 13 40
212 300 233 215 229 250 268 277 291 303 296 328 335 340 331 347 4 2 8 29 53 47 33 31 29 28 35 36 24 17 22 35 18 18 24 18 32 14 14 327 313 336 341 323 330 321 345 346 8
259 282 255 240 248 261 274 285 284 276 294 308 314 311 302 314 330 330 327 331 352 23 23 30 6 351 351 354 354 349 351 350 330 322 286 266 22 1 351 315 313 298 311 306 308 306 301 329 348
268 250 246 249 252 263 275 274 283 292 293 297 300 306 297 283 295 303 307 299 302 314 335 338 341 335 325 331 336 333 328 319 312 291 286 267 253 252 285 298 326 321 323 297 283 285 280 277 275
252 271 264 257 257 261 266 271 277 279 288 297 301 317 313 296 265 285 284 284 274 274 295 321 323 326 331 325 318 319 319 309 299 297 297 289 263 264 260 271 282 296 306 315 303 277 277 290 269
237 255 261 259 259 278 283 265 270 277 285 269 291 299 308 311 282 292 285 274 269 259 270 291 302 299 305 310 307 306 311 312 303 297 294 296 275 262 267 271 298 305 313 307 298 291 285 283 284
259 261 261 247 247 246 254 267 277 274 275 268 285 281 292 288 269 299 286 274 275 267 265 276 286 281 282 292 297 295 302 312 299 290 288 281 282 280 277 274 287 289 302 291 291 290 291 291 289
242 265 263 247 243 239 241 263 272 273 264 261 278 288 279 257 272 288 284 273 275 282 279 275 276 271 276 282 294 288 303 307 293 286 289 285 281 277 276 284 279 275 285 285 276 277 269 283 283
268 257 253 246 251 247 250 259 265 274 266 260 271 284 283 250 278 286 277 288 269 275 283 265 267 267 271 281 295 297 292 294 289 288 282 279 272 275 274 274 275 278 267 264 273 274 270 269 271
235 256 252 254 255 257 261 264 262 266 261 253 259 274 275 256 272 281 277 288 281 271 275 267 275 259 275 282 286 294 288 297 277 274 274 275 274 277 268 264 266 260 260 266 268 267 265 264 262
243 245 250 256 258 261 261 264 265 262 259 263 263 267 264 265 283 264 270 276 264 269 261 265 261 268 281 286 290 293 292 288 279 268 272 276 272 268 265 269 264 261 255 257 263 263 271 264 262
248 245 252 256 256 257 264 269 268 264 263 271 271 251 252 259 247 250 261 246 257 262 262 266 274 278 280 284 293 294 294 277 280 278 269 269 264 261 261 262 263 261 259 261 264 262 262 264 264
259 260 261 262 264 262 262 265 266 259 258 263 260 257 252 258 255 249 253 255 257 264 276 271 273 272 275 282 281 282 280 269 277 278 270 265 262 265 265 267 266 267 264 264 265 266 264 264 262
266 267 267 268 267 268 267 270 268 259 260 260 257 254 254 254 254 251 256 255 260 268 273 273 275 279 274 277 277 283 272 272 271 281 277 269 267 264 262 263 265 266 265 267 267 266 263 263 262
272 272 274 274 274 271 271 271 267 265 263 264 264 257 250 248 253 252 258 264 266 264 267 271 276 278 281 283 283 277 270 271 276 276 278 274 278 269 267 266 263 262 265 267 268 268 268 267 266
276 274 273 275 274 269 269 267 267 267 264 264 257 249 244 244 249 256 261 263 263 258 261 266 274 277 279 275 272 270 275 278 276 277 277 277 274 272 273 268 265 265 261 262 267 268 268 267 267
Height
11024 11026 11026 11026 11023 11021 11016 11013 11009 11004 10998 10992 10989 10985 10982 10977 10974 10970 10965 10960 10956 10954 10954 10955 10956 10959 10961 10966 10969 10970 10971 10972 10973 10974 10975 10977 10978 10980 10982 10983 10984 10984 10983 10982 10982 10982 10978 10976 10973
11028 11027 11027 11025 11027 11019 11019 11016 11014 11009 11003 10997 10993 10989 10986 10982 10977 10971 10964 10957 10953 10950 10949 10950 10952 10955 10959 10964 10966 10968 10970 10971 10971 10973 10975 10976 10978 10981 10983 10984 10985 10986 10985 10985 10984 10983 10981 10978 10974
11030 11030 11029 11028 11027 11023 11022 11020 11018 11013 11008 11004 11000 10996 10992 10987 10981 10973 10965 10957 10950 10946 10944 10944 10946 10950 10955 10960 10963 10966 10968 10969 10971 10974 10976 10979 10982 10985 10986 10987 10988 10989 10990 10990 10989 10985 10982 10979 10977
11030 11030 11030 11030 11030 11027 11025 11024 11020 11017 11014 11010 11006 11000 10995 10991 10983 10978 10968 10957 10949 10942 10939 10939 10941 10945 10952 10957 10961 10965 10968 10971 10974 10976 10979 10982 10986 10989 10989 10990 10991 10991 10992 10993 10990 10988 10986 10984 10981
11032 11033 11034 11034 11033 11030 11028 11027 11024 11021 11017 11013 11010 11006 11000 10995 10989 10982 10972 10961 10951 10943 10937 10936 10938 10942 10949 10955 10962 10966 10970 10974 10976 10979 10982 10985 10988 10989 10991 10993 10994 10995 10995 10994 10991 10989 10988 10988 10985
11035 11035 11035 11036 11035 11033 11031 11030 11029 11024 11020 11016 11013 11011 11007 11002 10996 10989 10979 10968 10957 10948 10941 10939 10940 10943 10950 10957 10964 10969 10973 10975 10977 10980 10983 10987 10990 10992 10993 10995 10996 10997 10997 10996 10992 10991 10989 10985 10983
11035 11035 11035 11038 11037 11037 11035 11034 11031 11027 11022 11020 11017 11017 11013 11007 11001 10995 10987 10978 10968 10958 10951 10947 10948 10951 10955 10961 10967 10971 10973 10977 10981 10983 10987 10990 10993 10995 10995 10996 10997 10997 10997 10997 10995 10993 10990 10987 10985
11035 11035 11037 11039 11039 11038 11037 11037 11033 11032 11028 11025 11022 11021 11018 11014 11010 11005 10997 10989 10981 10971 10964 10959 10958 10961 10964 10968 10972 10976 10979 10982 10985 10989 10992 10995 10997 10997 10997 10997 10999 10999 11000 11000 10996 10992 10992 10990 10991
11037 11038 11040 11039 11040 11041 11040 11040 11038 11036 11033 11030 11028 11026 11024 11019 11016 11012 11006 10998 10992 10986 10979 10973 10972 10973 10977 10980 10982 10985 10989 10992 10995 10997 10999 10999 10999 10998 11000 11003 11002 11001 11001 11001 10998 10993 10992 10992 10992
11037 11039 11041 11041 11041 11042 11042 11041 11041 11039 11037 11036 11033 11032 11029 11025 11022 11019 11013 11009 11005 10999 10994 10990 10987 10989 10990 10993 10995 10996 10997 10998 10998 11001 11003 11002 11002 11005 11005 11004 11005 11005 11005 11003 11001 10997 10993 10993 10992
11038 11040 11041 11042 11041 11042 11041 11041 11041 11040 11039 11038 11038 11038 11035 11031 11027 11026 11024 11018 11014 11010 11005 11004 11004 11002 11002 11002 11003 11003 11004 11005 11004 11003 11005 11007 11008 11010 11009 11008 11008 11007 11006 11008 11004 11001 10996 10992 10989
11039 11039 11039 11042 11042 11042 11042 11042 11042 11042 11042 11041 11041 11041 11040 11037 11032 11028 11027 11024 11022 11019 11017 11016 11014 11014 11013 11010 11009 11010 11010 11009 11008 11008 11010 11009 11010 11010 11010 11009 11007 11008 11005 11006 11006 11002 11000 10991 10988
11038 11037 11038 11039 11041 11042 11043 11043 11044 11044 11044 11042 11042 11041 11040 11040 11038 11035 11033 11030 11030 11027 11024 11023 11024 11022 11021 11020 11017 11015 11013 11014 11012 11011 11011 11011 11010 11011 11011 11008 11007 11008 11005 11004 11006 11001 10999 10993 10990
11037 11037 11037 11039 11040 11042 11043 11044 11044 11045 11045 11044 11043 11042 11041 11040 11040 11039 11035 11034 11033 11033 11030 11028 11027 11026 11027 11026 11024 11022 11020 11017 11016 11013 11012 11014 11013 11013 11012 11009 11007 11005 11005 11004 11001 11001 10998 10996 10994
11035 11036 11035 11039 11040 11042 11044 11045 11043 11042 11043 11043 11043 11042 11041 11040 11040 11039 11038 11037 11035 11032 11031 11031 11029 11030 11030 11028 11029 11028 11025 11022 11020 11019 11016 11016 11015 11015 11014 11012 11009 11007 11004 11002 11000 10999 10998 10996 10992
11035 11037 11036 11038 11039 11040 11042 11042 11042 11042 11041 11042 11042 11042 11041 11039 11039 11039 11038 11037 11036 11035 11033 11031 11032 11032 11033 11031 11030 11029 11028 11026 11023 11021 11020 11018 11015 11014 11015 11013 11009 11006 11003 11001 10999 10998 10995 10995 10995
11038 11036 11036 11037 11039 11039 11041 11041 11040 11038 11038 11039 11040 11040 11039 11038 11037 11037 11038 11035 11033 11032 11032 11032 11030 11030 11031 11032 11030 11029 11028 11026 11024 11021 11020 11019 11018 11014 11013 11012 11011 11008 11005 11003 11000 10997 10997 10996 10995
11035 11034 11032 11034 11036 11036 11037 11036 11036 11037 11037 11035 11036 11037 11036 11033 11033 11033 11033 11032 11029 11028 11027 11027 11027 11027 11028 11029 11029 11028 11026 11026 11024 11022 11019 11017 11018 11017 11018 11014 11010 11008 11006 11004 11003 11000 10996 10994 10995
11031 11032 11031 11032 11032 11030 11030 11030 11032 11031 11031 11031 11031 11030 11029 11027 11027 11028 11027 11027 11026 11024 11024 11023 11023 11021 11022 11024 11023 11023 11023 11021 11019 11018 11017 11015 11014 11013 11012 11009 11008 11006 11005 11003 11001 10997 10992 10992 10992
11027 11027 11027 11028 11025 11025 11026 11026 11027 11027 11024 11027 11026 11024 11022 11023 11023 11021 11022 11021 11021 11020 11020 11019 11019 11019 11017 11016 11017 11018 11017 11015 11014 11013 11012 11011 11011 11009 11006 11004 11002 11001 11000 10997 10995 10994 10992 10990 10990
11020 11021 11023 11023 11022 11022 11020 11017 11020 11021 11020 11018 11019 11016 11015 11018 11020 11018 11016 11016 11015 11014 11012 11013 11014 11013 11011 11011 11011 11011 11011 11010 11009 11007 11005 11004 11003 11000 11001 10998 10997 10995 10994 10994 10990 10988 10988 10987 10985
11015 11016 11019 11018 11013 11015 11013 11013 11015 11013 11014 11013 11010 11011 11010 11012 11011 11009 11010 11010 11007 11007 11006 11004 11006 11005 11003 11002 11004 11005 11004 11004 11002 11001 11000 10997 10995 10993 10993 10992 10990 10989 10987 10985 10982 10981 10980 10981 10981
11012 11013 11010 11010 11008 11009 11006 11008 11011 11005 11006 11010 11010 11006 11007 11004 11001 10998 10999 11002 11001 10998 10997 10996 10994 10995 10994 10994 10995 10997 10997 10997 10994 10992 10990 10989 10988 10985 10985 10983 10982 10981 10979 10977 10975 10972 10971 10972 10972
11006 11005 11001 11001 11000 10998 11000 11000 11004 10997 10996 11006 11006 11001 10997 10995 10993 10992 10991 10992 10993 10995 10988 10984 10984 10983 10981 10984 10984 10985 10986 10986 10985 10983 10981 10980 10978 10975 10974 10972 10971 10971 10969 10967 10966 10964 10963 10965 10964
10994 10992 10988 10987 10989 10991 10991 10988 10990 10987 10984 10993 10998 10994 10991 10986 10983 10979 10981 10979 10973 10983 10983 10979 10972 10973 10975 10975 10975 10975 10974 10973 10972 10971 10969 10965 10965 10963 10961 10961 10961 10959 10957 10955 10954 10953 10953 10953 10953
10981 10979 10975 10975 10975 10978 10980 10978 10976 10971 10970 10978 10983 10989 10983 10986 10984 10973 10973 10973 10968 10974 10975 10974 10966 10959 10963 10969 10967 10964 10960 10960 10959 10959 10957 10953 10950 10948 10946 10944 10944 10945 10944 10941 10939 10939 10941 10941 10941
10968 10965 10963 10963 10959 10962 10961 10964 10962 10960 10958 10967 10968 10971 10973 10974 10973 10965 10960 10962 10961 10961 10958 10960 10960 10954 10952 10961 10963 10959 10955 10950 10944 10940 10939 10938 10936 10934 10931 10928 10927 10924 10924 10926 10926 10924 10926 10926 10926
10958 10949 10949 10947 10947 10945 10943 10943 10948 10948 10946 10952 10949 10955 10958 10959 10955 10952 10950 10950 10949 10944 10941 10941 10944 10941 10940 10943 10943 10941 10938 10931 10927 10923 10924 10920 10920 10918 10914 10912 10909 10907 10906 10905 10905 10906 10906 10906 10906
10940 10934 10932 10928 10924 10924 10922 10924 10927 10927 10929 10931 10930 10930 10939 10943 10941 10939 10934 10931 10931 10931 10931 10932 10931 10927 10927 10925 10923 10919 10915 10910 10907 10905 10905 10902 10901 10897 10893 10892 10892 10888 10885 10884 10884 10884 10884 10885 10885
10923 10919 10914 10912 10907 10901 10902 10903 10903 10904 10907 10907 10909 10909 10910 10914 10916 10914 10911 10914 10915 10920 10922 10922 10915 10911 10908 10905 10901 10899 10895 10893 10890 10887 10884 10881 10879 10877 10873 10870 10868 10866 10865 10863 10860 10861 10860 10860 10860